Probability
16 29 52 55 55 58 58 65 58 61 74 77 74 71 71 74 77 81 87 94 87 81 77 81 81 84 87 84 71 68 68 68 77 71 77 84 74 71 74 65 65 81 68
6 19 48 52 48 48 55 52 52 45 55 58 65 65 65 71 71 74 81 84 87 81 77 71 68 74 81 77 74 77 71 81 77 77 77 81 71 61 74 65 65 84 68
13 23 35 48 48 52 48 42 45 42 42 48 52 52 58 58 71 68 71 77 77 74 68 71 71 77 77 84 81 81 74 81 84 77 77 71 71 65 61 65 77 61 65
23 29 26 45 48 48 42 42 39 39 42 39 42 45 45 52 58 55 58 61 65 61 61 65 71 74 77 77 81 84 81 74 84 77 58 55 65 71 74 74 68 58 61
19 23 26 42 35 32 35 32 32 29 29 29 29 32 35 35 35 42 55 61 61 58 61 58 74 68 74 68 71 81 84 74 71 68 58 71 84 81 77 68 61 55 61
19 16 26 39 32 29 29 19 16 16 13 16 19 19 16 29 29 32 32 52 48 48 55 58 58 58 58 55 65 65 81 74 74 61 68 71 77 84 81 74 52 52 58
13 16 16 29 29 19 19 19 19 16 10 10 6 16 19 13 23 16 19 23 26 42 45 48 52 35 35 45 55 65 65 61 58 55 61 61 74 71 65 71 48 45 55
10 10 6 26 19 19 13 16 13 6 13 10 6 3 6 6 10 13 19 23 19 26 32 39 42 39 42 32 39 48 61 68 23 26 48 58 65 68 65 58 55 52 42
10 6 6 3 6 19 16 10 6 6 3 0 0 0 3 3 3 3 6 13 13 19 26 29 32 35 32 29 29 35 55 55 48 39 16 39 55 61 58 52 55 55 52
6 6 3 3 6 6 3 10 6 0 0 0 0 3 3 3 3 3 3 10 10 10 13 13 19 19 26 39 32 45 52 39 32 32 19 39 42 58 48 45 61 55 61
3 0 3 0 0 0 0 0 3 0 0 0 3 3 0 0 0 0 0 3 0 3 10 3 6 13 19 29 32 29 26 10 16 19 16 35 35 42 55 52 61 55 65
3 0 0 0 0 0 0 0 0 0 0 0 0 0 0 0 0 0 0 3 6 3 6 3 3 6 10 16 26 19 6 16 16 6 13 32 39 58 52 39 68 58 68
3 0 0 0 0 0 0 0 0 0 0 0 0 0 0 0 0 0 0 0 3 0 3 3 3 6 6 13 13 16 6 13 6 6 13 19 39 52 52 55 52 58 65
3 3 3 0 0 0 0 0 0 0 0 0 0 0 0 0 0 0 0 0 0 0 3 3 6 0 3 3 10 10 6 19 13 13 26 19 32 48 45 42 58 61 58
3 3 3 0 0 0 0 0 0 0 0 0 0 0 0 0 0 0 0 0 0 0 0 0 0 0 0 0 3 10 10 6 6 3 13 26 32 42 45 39 58 58 58
0 0 0 0 0 0 0 0 0 0 0 0 0 0 0 0 0 0 0 0 0 0 0 0 0 0 0 0 3 3 6 6 3 6 10 32 29 35 45 45 58 52 52
0 0 0 0 0 0 0 0 0 0 0 0 0 0 0 0 0 0 0 0 0 0 0 0 0 0 0 0 0 3 6 6 6 6 13 19 32 29 39 55 55 55 55
0 0 0 0 0 0 0 0 0 0 0 0 0 0 0 0 0 0 0 0 0 0 0 0 0 0 0 0 0 3 10 19 6 13 19 19 35 29 32 52 65 55 58
0 0 0 0 0 0 0 0 0 0 0 0 0 0 0 0 0 0 0 0 0 0 0 0 0 0 0 3 3 6 13 10 13 16 13 6 23 32 35 39 48 52 52
0 0 0 0 0 0 0 0 0 0 0 0 0 0 0 0 0 0 0 0 0 0 0 0 0 3 3 3 0 0 10 10 16 16 19 16 19 13 23 26 32 26 39
3 0 0 0 0 0 0 0 0 0 0 0 0 0 0 0 0 0 0 0 0 3 0 0 0 0 0 0 3 0 3 0 10 16 10 13 16 10 19 23 29 32 45
6 3 0 0 0 0 0 0 0 0 0 0 0 0 0 0 0 0 0 0 0 3 0 0 3 6 0 0 0 3 3 0 3 3 13 16 13 13 13 6 13 29 29
6 0 0 0 0 0 0 0 0 0 0 0 0 0 0 0 0 0 0 0 0 0 0 0 3 3 3 3 3 0 3 3 3 3 6 13 10 19 16 19 10 10 6
3 0 0 0 0 0 0 0 0 0 0 0 0 0 0 0 0 0 0 0 0 0 0 0 0 6 3 3 3 3 3 0 0 0 0 0 3 3 10 3 10 13 16
3 6 0 0 0 0 0 0 0 0 0 0 0 0 0 0 0 0 0 0 0 3 3 0 6 6 13 10 6 3 0 6 0 0 0 0 6 0 13 10 19 23 16
0 3 0 0 0 0 0 0 0 0 0 0 0 0 0 0 0 0 0 0 0 3 3 3 3 10 10 6 10 10 3 3 3 6 0 0 0 0 3 10 19 32 16
Height
5877 5876 5876 5876 5876 5875 5875 5875 5874 5874 5874 5873 5873 5873 5872 5872 5872 5872 5871 5871 5871 5871 5871 5871 5871 5872 5872 5873 5873 5873 5874 5874 5874 5875 5875 5875 5875 5875 5875 5874 5874 5874 5874
5876 5876 5875 5875 5875 5874 5874 5873 5873 5873 5872 5872 5872 5871 5871 5870 5870 5870 5869 5869 5869 5869 5869 5869 5869 5869 5870 5870 5871 5872 5872 5872 5873 5873 5873 5873 5874 5874 5874 5874 5874 5873 5873
5875 5875 5874 5874 5873 5873 5872 5872 5871 5871 5871 5870 5870 5869 5869 5868 5868 5867 5867 5866 5866 5866 5866 5866 5866 5867 5867 5868 5868 5869 5870 5870 5871 5871 5872 5872 5872 5873 5873 5873 5873 5873 5872
5874 5873 5873 5872 5872 5871 5871 5870 5870 5869 5869 5868 5868 5867 5867 5866 5865 5865 5864 5864 5863 5863 5863 5863 5863 5864 5864 5865 5865 5866 5867 5868 5869 5869 5870 5870 5871 5871 5872 5872 5872 5872 5872
5872 5872 5871 5871 5871 5870 5869 5869 5868 5868 5867 5867 5866 5865 5864 5864 5863 5862 5861 5861 5860 5860 5860 5860 5860 5860 5861 5861 5862 5863 5864 5866 5866 5867 5868 5868 5869 5870 5870 5871 5871 5871 5870
5871 5870 5870 5869 5869 5868 5868 5868 5867 5866 5866 5865 5864 5863 5862 5861 5860 5859 5859 5858 5857 5857 5856 5856 5856 5857 5857 5858 5859 5860 5861 5863 5864 5865 5865 5866 5867 5868 5868 5869 5869 5869 5869
5869 5869 5868 5868 5867 5867 5866 5866 5865 5864 5864 5862 5861 5860 5859 5858 5857 5856 5855 5854 5854 5853 5852 5852 5853 5853 5854 5854 5855 5856 5858 5859 5861 5862 5862 5863 5865 5865 5866 5867 5868 5868 5868
5868 5867 5867 5866 5866 5865 5865 5864 5864 5862 5861 5860 5859 5858 5857 5855 5854 5853 5852 5851 5850 5849 5849 5849 5849 5849 5850 5850 5851 5852 5854 5855 5857 5858 5860 5861 5862 5863 5864 5865 5866 5866 5866
5867 5866 5866 5865 5865 5864 5864 5863 5862 5861 5860 5858 5857 5856 5854 5853 5851 5850 5849 5847 5846 5846 5845 5845 5845 5845 5846 5846 5847 5849 5850 5852 5853 5855 5856 5858 5859 5861 5862 5863 5864 5864 5865
5866 5865 5865 5864 5864 5863 5862 5861 5860 5859 5858 5856 5855 5853 5852 5850 5848 5847 5845 5844 5843 5842 5841 5841 5841 5841 5842 5842 5843 5845 5846 5848 5850 5851 5853 5855 5856 5858 5859 5861 5862 5862 5863
5865 5864 5864 5863 5862 5862 5861 5860 5858 5857 5855 5854 5852 5851 5849 5847 5845 5843 5842 5840 5839 5838 5837 5837 5837 5837 5837 5838 5839 5840 5842 5843 5845 5847 5849 5851 5853 5855 5857 5858 5859 5860 5861
5863 5863 5862 5862 5861 5860 5859 5858 5856 5855 5854 5852 5850 5848 5846 5844 5842 5840 5838 5837 5835 5834 5834 5833 5833 5832 5832 5833 5834 5836 5837 5839 5841 5843 5845 5848 5850 5852 5854 5855 5857 5858 5859
5862 5862 5861 5861 5860 5859 5857 5856 5855 5853 5852 5850 5848 5846 5844 5841 5839 5837 5835 5833 5832 5830 5829 5829 5828 5828 5828 5829 5829 5831 5832 5834 5836 5838 5841 5844 5846 5848 5850 5853 5854 5856 5858
5861 5861 5860 5859 5858 5857 5856 5855 5853 5852 5850 5848 5846 5843 5841 5839 5836 5834 5832 5829 5828 5826 5825 5824 5823 5823 5823 5824 5824 5826 5828 5830 5832 5834 5837 5840 5843 5845 5847 5850 5852 5854 5856
5859 5859 5859 5858 5857 5856 5855 5854 5852 5850 5848 5846 5844 5841 5839 5836 5833 5831 5828 5826 5824 5822 5821 5819 5818 5818 5818 5819 5819 5821 5823 5825 5827 5829 5832 5836 5839 5841 5844 5846 5849 5851 5853
5858 5858 5858 5857 5856 5855 5854 5852 5851 5849 5846 5844 5841 5839 5836 5833 5830 5828 5825 5822 5820 5818 5816 5815 5813 5813 5813 5813 5814 5816 5818 5820 5822 5825 5828 5831 5835 5838 5840 5843 5846 5849 5851
5857 5857 5856 5856 5854 5853 5852 5851 5849 5847 5844 5842 5839 5836 5833 5830 5827 5824 5821 5818 5816 5813 5811 5810 5808 5808 5807 5808 5809 5811 5812 5814 5817 5820 5823 5827 5830 5833 5837 5840 5843 5846 5848
5856 5856 5855 5854 5853 5852 5851 5849 5847 5845 5842 5840 5837 5834 5831 5827 5824 5821 5818 5815 5812 5809 5807 5805 5804 5803 5802 5803 5804 5805 5807 5809 5812 5815 5818 5822 5825 5829 5833 5836 5839 5843 5845
5855 5854 5854 5853 5852 5851 5849 5848 5845 5843 5840 5838 5834 5831 5828 5825 5821 5818 5814 5811 5808 5805 5803 5801 5799 5798 5798 5798 5798 5800 5801 5804 5806 5809 5813 5817 5820 5824 5828 5832 5836 5839 5842
5854 5853 5853 5852 5851 5849 5848 5846 5844 5841 5839 5836 5832 5829 5825 5822 5818 5815 5811 5808 5805 5802 5799 5796 5795 5794 5793 5793 5794 5795 5796 5799 5801 5804 5808 5812 5816 5820 5824 5828 5832 5835 5839
5853 5852 5851 5850 5849 5848 5846 5844 5842 5840 5837 5834 5830 5827 5823 5820 5816 5812 5809 5805 5802 5798 5795 5793 5791 5790 5789 5789 5790 5791 5792 5794 5796 5799 5803 5807 5811 5815 5819 5824 5828 5831 5835
5851 5851 5850 5849 5848 5846 5845 5843 5840 5838 5835 5832 5828 5825 5821 5817 5814 5810 5806 5802 5799 5795 5792 5790 5787 5786 5785 5785 5785 5786 5788 5791 5792 5795 5798 5802 5806 5810 5815 5819 5823 5827 5831
5850 5849 5848 5847 5846 5845 5843 5841 5838 5836 5833 5830 5827 5823 5819 5815 5812 5808 5804 5800 5796 5793 5790 5787 5784 5782 5782 5781 5782 5783 5784 5786 5788 5791 5794 5798 5802 5805 5810 5814 5819 5822 5826
5848 5848 5847 5846 5844 5843 5841 5839 5836 5834 5831 5828 5824 5821 5817 5813 5810 5806 5802 5798 5794 5791 5787 5784 5781 5779 5778 5778 5778 5779 5780 5782 5784 5787 5790 5793 5797 5801 5805 5809 5814 5818 5822
5847 5846 5845 5844 5843 5841 5839 5836 5834 5831 5829 5825 5822 5819 5815 5812 5808 5804 5800 5796 5793 5789 5785 5782 5779 5777 5775 5775 5775 5775 5777 5778 5780 5783 5786 5789 5793 5796 5800 5804 5809 5813 5817
5846 5845 5844 5842 5841 5839 5837 5834 5832 5829 5826 5823 5820 5817 5813 5810 5806 5802 5799 5795 5791 5787 5784 5780 5777 5775 5773 5772 5772 5772 5773 5775 5777 5779 5782 5785 5788 5792 5796 5800 5804 5808 5812
Wind_Speed
3 3 4 4 5 6 7 7 7 7 7 8 8 9 9 10 11 11 11 11 12 12 12 12 12 12 11 10 9 9 8 7 7 7 6 6 5 4 4 3 2 2 3
4 4 5 5 6 6 7 8 8 7 8 8 8 9 10 11 11 11 12 12 13 13 13 13 13 13 12 12 11 10 10 9 8 8 7 6 6 5 4 4 3 3 3
5 6 6 6 6 7 7 8 8 8 8 8 9 10 10 11 11 12 13 13 14 14 14 14 14 14 14 13 13 12 11 10 9 9 8 8 7 6 5 5 4 4 3
6 7 7 7 7 7 7 8 8 8 9 9 10 11 11 12 12 13 13 13 14 15 15 15 15 15 15 15 14 14 13 12 11 10 9 9 8 7 7 6 5 5 4
7 7 7 8 8 8 8 8 8 9 10 11 11 12 13 13 13 13 14 15 15 16 16 16 16 16 16 16 16 15 15 14 12 11 11 10 9 8 8 7 7 6 5
6 7 7 8 8 8 8 8 8 9 10 11 12 13 13 13 13 14 15 15 16 16 17 17 17 17 17 17 17 17 17 16 14 13 12 12 11 10 9 8 8 7 7
6 6 7 6 6 7 7 8 9 10 11 12 12 13 14 14 15 15 16 16 16 17 17 17 18 18 18 18 18 17 17 17 16 15 14 13 12 11 10 9 8 8 8
6 6 5 5 5 6 7 8 10 10 11 12 12 13 14 14 15 16 17 17 17 17 18 18 18 19 18 18 17 17 18 17 17 17 15 14 13 12 11 10 10 9 9
5 5 4 4 5 6 7 8 10 10 11 11 12 14 15 15 16 16 17 18 18 18 18 19 19 19 18 18 18 18 19 19 18 18 17 15 14 13 12 11 11 10 9
5 4 4 4 5 6 7 9 10 11 11 12 12 13 14 15 16 17 17 17 18 18 18 19 19 19 19 19 19 18 20 20 20 19 18 17 16 15 13 12 12 11 10
5 4 4 4 6 7 8 9 10 10 11 12 13 14 14 15 16 17 17 17 17 17 18 18 19 19 20 19 20 20 20 21 21 21 19 19 18 16 15 14 13 12 11
5 4 4 5 7 8 9 9 10 10 11 12 13 14 15 15 16 16 17 17 17 18 18 19 19 20 20 20 21 20 20 21 21 22 21 20 19 18 16 15 14 13 12
5 5 5 6 7 8 8 9 10 11 11 13 14 14 15 15 16 16 17 18 18 18 19 19 20 20 21 22 20 20 21 22 21 21 22 21 20 19 18 17 16 15 14
5 5 5 7 7 8 8 9 10 11 12 13 14 14 15 16 16 16 17 18 18 18 19 20 21 21 21 22 21 21 21 22 21 22 23 23 22 20 20 19 18 16 15
6 6 6 7 7 8 9 9 10 12 13 14 14 15 16 16 17 17 17 18 18 19 19 20 21 21 22 22 22 22 23 23 24 23 23 24 23 21 21 20 20 18 17
6 6 6 7 7 8 9 10 11 12 13 14 15 16 16 17 18 18 18 18 19 19 19 19 20 21 22 22 22 23 24 25 26 25 24 24 23 23 22 21 21 20 19
7 7 7 7 7 8 9 10 12 13 14 15 16 16 17 17 18 18 19 19 19 19 19 18 18 19 20 21 22 22 23 25 26 26 26 25 25 25 24 22 22 21 20
7 7 8 8 8 9 10 11 12 13 14 15 16 17 17 18 18 19 19 19 19 19 19 18 18 18 19 20 21 22 23 24 25 27 28 27 26 26 26 24 23 22 22
7 7 8 8 9 10 10 11 13 13 14 16 16 17 18 18 19 19 19 19 19 18 18 18 17 17 18 18 20 21 23 24 25 26 28 28 28 28 28 26 24 23 23
7 7 8 9 9 10 11 12 13 14 15 16 17 17 18 18 19 19 19 19 19 18 17 16 16 16 17 17 18 19 21 23 24 26 28 29 29 29 28 28 26 24 24
7 7 8 9 10 11 11 12 13 14 15 16 16 17 18 19 19 19 19 19 18 17 16 15 14 15 15 16 17 18 19 21 23 25 27 28 29 29 30 30 28 27 25
7 8 8 9 10 11 12 12 13 14 15 15 16 17 18 19 19 19 19 19 17 17 16 15 14 13 14 15 16 16 18 19 21 24 26 27 29 30 31 31 30 28 27
7 8 8 9 10 11 12 13 13 14 15 16 16 17 18 18 19 19 19 19 18 17 16 15 13 13 13 13 14 15 17 18 20 23 25 26 28 29 30 31 30 30 29
8 8 9 9 11 11 12 13 13 14 15 16 17 17 18 18 19 19 19 18 18 17 16 14 13 12 11 12 14 15 16 18 19 22 24 25 27 28 29 30 30 30 30
8 8 9 10 11 12 12 13 14 14 15 16 17 17 18 18 18 19 19 18 18 17 16 14 13 11 10 11 12 14 16 17 19 20 23 25 27 28 28 29 30 30 31
8 9 10 11 12 13 13 14 14 15 16 16 17 17 17 18 18 18 18 18 17 16 16 15 13 10 9 9 10 11 13 15 18 19 21 24 26 26 28 29 30 30 30
Wind_Direction
273 275 281 282 285 295 296 294 296 295 290 284 281 278 277 275 275 274 274 272 271 268 267 261 256 252 252 251 251 252 255 259 261 263 265 265 267 274 282 293 295 295 296
276 281 291 286 288 297 296 294 295 292 291 287 283 282 280 278 276 275 274 273 271 268 267 265 260 255 253 251 249 249 251 255 256 257 257 258 258 260 265 269 275 282 282
280 285 289 288 288 293 293 290 291 290 289 289 285 285 282 280 279 278 277 275 271 269 265 264 262 259 256 252 250 247 248 252 253 252 251 252 252 254 258 259 263 265 266
278 286 289 289 288 287 288 287 289 287 286 286 286 286 285 282 280 279 279 276 273 271 268 266 263 261 257 253 250 246 245 247 249 249 248 248 249 250 254 255 252 251 253
281 287 287 287 286 285 285 287 289 290 292 289 289 289 286 283 281 280 280 278 275 272 268 268 265 262 260 254 251 248 243 243 245 244 245 245 246 246 248 252 247 242 245
285 286 285 286 285 284 287 291 292 294 295 293 292 290 288 285 284 282 282 280 277 273 269 267 265 264 261 255 250 247 243 241 242 240 242 243 242 241 242 247 247 241 243
293 292 290 286 286 287 289 292 294 296 297 296 295 293 290 287 287 287 286 284 280 275 270 267 265 263 264 259 249 245 243 241 240 238 238 239 239 238 237 240 241 240 242
296 297 294 287 289 292 293 295 295 298 299 298 298 298 295 292 290 290 287 285 282 278 273 271 268 264 261 257 251 247 242 240 241 237 235 236 236 235 234 235 235 236 236
293 292 294 290 294 296 298 298 299 302 302 299 299 300 298 296 295 293 290 287 283 279 275 273 269 267 263 256 253 251 243 240 241 238 233 233 231 230 230 230 231 233 233
285 287 292 296 299 302 304 303 304 305 305 303 302 302 301 299 297 296 294 290 285 280 277 274 270 266 264 259 257 255 248 242 240 237 232 229 227 226 226 227 228 229 230
282 284 289 301 309 311 310 309 310 312 310 309 309 308 305 303 301 299 297 292 288 283 278 275 273 267 263 261 258 254 249 243 240 237 231 227 225 224 224 224 222 226 224
279 279 287 300 307 311 312 313 314 316 314 313 313 312 309 306 304 302 299 294 289 285 280 276 272 268 263 259 256 251 247 242 240 237 231 228 224 222 222 222 220 221 215
277 280 288 302 307 311 313 314 315 316 316 315 316 316 313 311 308 304 301 298 292 287 283 278 273 268 263 259 256 248 244 241 238 233 229 227 224 222 220 219 218 217 213
274 277 289 300 306 310 312 313 315 316 317 317 318 318 317 315 313 309 305 300 294 289 285 282 275 268 263 259 256 248 242 239 236 231 227 225 224 221 219 219 217 214 212
274 275 288 298 303 307 312 315 318 318 319 319 319 320 319 316 315 314 311 306 300 293 289 285 278 270 265 259 254 249 243 239 237 233 226 224 223 221 220 219 216 214 212
272 274 282 293 298 304 311 315 317 319 320 320 321 321 320 319 318 316 314 309 303 297 292 287 281 271 266 260 254 250 244 242 237 235 227 222 221 220 219 218 214 213 213
270 276 282 291 298 305 311 314 316 320 323 324 324 323 322 321 320 317 315 312 307 302 297 291 283 275 268 260 253 250 246 242 236 232 226 221 220 219 218 217 214 212 211
270 277 284 293 298 305 311 315 318 321 323 325 326 326 325 324 322 321 318 315 311 305 300 294 285 277 270 262 254 248 245 240 234 230 225 222 220 218 217 216 215 214 213
266 276 285 293 299 305 311 315 318 321 323 326 327 327 327 327 326 325 322 319 316 310 304 296 287 278 270 262 255 248 243 239 234 227 224 223 221 218 217 216 215 215 215
263 275 285 295 300 304 309 313 316 320 323 326 328 328 329 330 330 329 327 323 320 316 309 302 290 280 271 262 254 247 241 238 233 225 222 221 220 218 217 216 215 216 216
265 277 285 296 301 304 308 312 317 321 324 327 329 330 331 332 332 332 331 328 325 321 315 307 295 284 274 263 254 247 241 237 231 224 222 220 219 218 217 216 216 217 217
270 279 287 296 301 305 309 313 319 322 325 327 329 331 333 334 334 334 334 333 330 326 321 313 299 289 276 264 255 248 241 234 228 224 221 219 219 218 218 216 217 218 219
275 282 290 297 301 306 310 315 319 323 326 328 330 332 335 336 336 335 336 336 333 329 325 318 307 292 279 265 254 246 240 236 228 223 221 219 218 218 218 216 218 219 217
279 283 288 293 298 304 310 314 318 322 325 328 330 331 334 336 336 337 338 338 337 334 330 325 316 299 283 268 254 245 238 233 226 222 221 220 218 218 218 218 218 219 218
287 290 296 298 301 305 308 313 317 321 324 327 329 330 332 335 337 338 340 341 341 339 336 331 324 307 289 273 258 246 239 233 226 222 222 220 219 218 219 218 218 219 219
292 297 300 303 305 308 310 312 316 320 323 325 327 328 330 333 335 338 340 343 343 342 342 340 333 320 302 281 261 248 238 231 227 223 220 219 219 219 219 218 218 219 219